Regional Weather Roundup
Issued by NWS Albany, NY

Home | Current Version | Previous Version | Text Only | Print | Product List | Glossary On
Versions: 1 2 3 4 5 6 7 8 9 10 11 12 13 14 15 16 17 18 19 20 21 22 23 24 25 26 27 28 29 30 31 32 33 34 35 36 37 38 39 40 41 42 43 44 45 46 47 48 49 50
000
ASUS41 KALY 271510
RWRALY

NEW YORK STATE HOURLY WEATHER ROUNDUP
NATIONAL WEATHER SERVICE ALBANY NY
1000 AM EST FRI FEB 27 2015

NOTE: "FAIR" INDICATES FEW OR NO CLOUDS BELOW 12,000 FEET WITH NO
SIGNIFICANT WEATHER AND/OR NO OBSTRUCTIONS TO VISIBILITY.

NYZ032-033-038>043-046>054-057>066-NYZ062>081-271600-
EAST


CITY           SKY/WX    TMP DP  RH WIND       PRES   REMARKS
ALBANY         SUNNY     13  -6  42 NW8       30.42R WCI   2
GLENS FALLS    SUNNY     11  -3  53 CALM      30.40R
POUGHKEEPSIE   SUNNY     18  -1  43 VRB5      30.41R WCI  11
NEWBURGH       SUNNY     16   1  53 CALM      30.38R
MONTGOMERY     SUNNY     14   1  56 CALM      30.38R
WHITE PLAINS   SUNNY     18   2  49 NW13      30.35R WCI   5
ISLIP          MOSUNNY   21   6  52 N13       30.36R WCI   9
NEW YORK CITY  SUNNY     21   7  54 N9        30.40R WCI  11
CENTRAL PARK   SUNNY     20   4  50 VRB5      30.40R WCI  13
$$

NYZ005>009-017-018-044>046-055-056-271600-
CENTRAL


CITY           SKY/WX    TMP DP  RH WIND       PRES   REMARKS
FULTON         SUNNY     11   0  61 W10       30.42R WCI  -3
SYRACUSE       MOSUNNY   14   3  62 W7        30.43R WCI   4
ROME           CLOUDY     5   1  83 CALM      30.44R FOG
ELMIRA         SUNNY     10   2  69 S6        30.39F WCI   0
BINGHAMTON     SUNNY      9   0  67 NW7       30.29S WCI  -2
MONTICELLO     SUNNY     10   0  61 NW13G22   30.31S WCI  -5
$$

NYZ026>034-041>043-271600-
NORTH


CITY           SKY/WX    TMP DP  RH WIND       PRES   REMARKS
WATERTOWN      SUNNY     10  -4  53 NW5       30.43R WCI   2
FORT DRUM      NOT AVBL
MASSENA        SUNNY      4 -11  50 W8        30.43R WCI  -9
SARANAC LAKE   SUNNY      2 -11  54 SW12      30.23R WCI -15
PLATTSBURGH    SUNNY      8  -5  55 E7        30.39R WCI  -3
$$

NYZ001>004-010>016-019>021-271600-
WEST


CITY           SKY/WX    TMP DP  RH WIND       PRES   REMARKS
NIAGARA FALLS  MOSUNNY    6   1  80 W12       30.47R WCI  -9
BUFFALO        MOSUNNY    3  -4  72 SW12      30.46R WCI -13
DUNKIRK        SUNNY      4  -3  73 SW12      30.50R WCI -12
JAMESTOWN      SUNNY      3  -6  66 W8        30.35R WCI -10
WELLSVILLE     MOSUNNY    6  -2  69 NW8       30.29R WCI  -7
ROCHESTER      MOSUNNY   10   2  69 W13       30.44R WCI  -5
PENN YAN       SUNNY     10  -1  61 W5        30.39R WCI   2
$$

             KEY
       WCI = WIND CHILL INDEX
       VSB = VISIBILITY
       HX  = HEAT INDEX
$$


USA.gov is the U.S. government's official web portal to all federal, state and local government web resources and services.